Time,TemperatureF,DewpointF,PressureIn,WindDirection,WindDirectionDegrees,WindSpeedMPH,WindSpeedGustMPH,Humidity,HourlyPrecipIn,Conditions,Clouds,dailyrainin,SoftwareType,DateUTC
2013-03-23 00:00:00,59.3,42.2,29.85,East,80,0.0,13.0,53,0.00,,,0.00,Wunderground v.1.13,2013-03-23 05:00:00,
2013-03-23 00:10:00,59.2,42.6,29.85,East,80,0.0,13.0,54,0.00,,,0.00,Wunderground v.1.13,2013-03-23 05:10:00,
2013-03-23 00:20:00,59.1,42.9,29.85,East,80,0.0,13.0,55,0.00,,,0.00,Wunderground v.1.13,2013-03-23 05:20:00,
2013-03-23 00:30:00,59.1,42.9,29.84,East,80,0.0,13.0,55,0.00,,,0.00,Wunderground v.1.13,2013-03-23 05:30:00,
2013-03-23 00:40:00,59.2,43.0,29.85,East,80,0.0,13.0,55,0.00,,,0.00,Wunderground v.1.13,2013-03-23 05:40:00,
2013-03-23 00:50:00,59.3,44.1,29.85,East,80,0.0,13.0,57,0.00,,,0.00,Wunderground v.1.13,2013-03-23 05:50:00,
2013-03-23 01:00:00,59.4,44.6,29.84,East,80,0.0,13.0,58,0.00,,,0.00,Wunderground v.1.13,2013-03-23 06:00:00,
2013-03-23 01:10:00,59.5,44.7,29.84,East,80,0.0,13.0,58,0.00,,,0.00,Wunderground v.1.13,2013-03-23 06:10:00,
2013-03-23 01:20:00,59.6,45.7,29.84,East,80,0.0,13.0,60,0.00,,,0.00,Wunderground v.1.13,2013-03-23 06:20:00,
2013-03-23 01:30:00,59.6,46.1,29.83,East,80,0.0,13.0,61,0.00,,,0.00,Wunderground v.1.13,2013-03-23 06:30:00,
2013-03-23 01:40:00,59.9,46.4,29.83,East,81,0.0,13.0,61,0.00,,,0.00,Wunderground v.1.13,2013-03-23 06:40:00,
2013-03-23 01:50:00,60.0,46.9,29.83,East,81,0.0,13.0,62,0.00,,,0.00,Wunderground v.1.13,2013-03-23 06:50:00,
2013-03-23 02:00:00,60.2,47.1,29.83,East,82,0.0,13.0,62,0.00,,,0.00,Wunderground v.1.13,2013-03-23 07:00:00,
2013-03-23 02:10:00,60.4,47.7,29.83,East,82,0.0,13.0,63,0.00,,,0.00,Wunderground v.1.13,2013-03-23 07:10:00,
2013-03-23 02:20:00,60.5,48.3,29.83,East,82,0.0,13.0,64,0.00,,,0.00,Wunderground v.1.13,2013-03-23 07:20:00,
2013-03-23 02:30:00,60.7,48.4,29.83,ESE,105,0.0,13.0,64,0.00,,,0.00,Wunderground v.1.13,2013-03-23 07:30:00,
2013-03-23 02:40:00,60.8,49.0,29.83,ESE,105,0.0,13.0,65,0.00,,,0.00,Wunderground v.1.13,2013-03-23 07:40:00,
2013-03-23 02:50:00,60.7,49.7,29.83,ESE,105,0.0,13.0,67,0.00,,,0.00,Wunderground v.1.13,2013-03-23 07:50:00,
2013-03-23 03:00:00,60.4,50.2,29.82,ESE,105,0.0,13.0,69,0.00,,,0.00,Wunderground v.1.13,2013-03-23 08:00:00,
2013-03-23 03:10:00,60.3,50.5,29.81,ESE,105,0.0,13.0,70,0.00,,,0.00,Wunderground v.1.13,2013-03-23 08:10:00,
2013-03-23 03:20:00,60.3,50.5,29.80,ESE,113,0.0,13.0,70,0.00,,,0.00,Wunderground v.1.13,2013-03-23 08:20:00,
2013-03-23 03:30:00,60.5,50.7,29.80,SE,126,1.0,13.0,70,0.00,,,0.00,Wunderground v.1.13,2013-03-23 08:30:00,
2013-03-23 03:40:00,60.4,51.0,29.79,ESE,104,1.0,1.0,71,0.00,,,0.00,Wunderground v.1.13,2013-03-23 08:40:00,
2013-03-23 03:50:00,60.4,51.3,29.79,SE,125,1.0,1.0,72,0.00,,,0.00,Wunderground v.1.13,2013-03-23 08:50:00,
2013-03-23 04:00:00,60.4,52.1,29.78,SE,126,2.0,2.0,74,0.00,,,0.00,Wunderground v.1.13,2013-03-23 09:00:00,
2013-03-23 04:10:00,60.4,52.4,29.78,ESE,122,1.0,1.0,75,0.00,,,0.00,Wunderground v.1.13,2013-03-23 09:10:00,
2013-03-23 04:20:00,60.4,52.8,29.77,SE,126,1.0,1.0,76,0.00,,,0.00,Wunderground v.1.13,2013-03-23 09:20:00,
2013-03-23 04:30:00,60.5,52.9,29.77,East,88,1.0,1.0,76,0.00,,,0.00,Wunderground v.1.13,2013-03-23 09:30:00,
2013-03-23 04:40:00,60.5,52.9,29.76,ENE,74,0.0,13.0,76,0.00,,,0.00,Wunderground v.1.13,2013-03-23 09:40:00,
2013-03-23 04:50:00,60.5,53.3,29.75,East,84,0.0,13.0,77,0.00,,,0.00,Wunderground v.1.13,2013-03-23 09:50:00,
2013-03-23 05:00:00,60.4,53.5,29.76,East,85,0.0,13.0,78,0.00,,,0.00,Wunderground v.1.13,2013-03-23 10:00:00,
2013-03-23 05:10:00,60.4,53.9,29.77,East,84,0.0,13.0,79,0.00,,,0.00,Wunderground v.1.13,2013-03-23 10:10:00,
2013-03-23 05:20:00,60.4,53.9,29.78,East,84,0.0,13.0,79,0.00,,,0.00,Wunderground v.1.13,2013-03-23 10:20:00,
2013-03-23 05:30:00,60.4,53.9,29.78,East,85,0.0,13.0,79,0.00,,,0.00,Wunderground v.1.13,2013-03-23 10:30:00,
2013-03-23 05:40:00,60.5,54.3,29.79,East,100,0.0,13.0,80,0.00,,,0.00,Wunderground v.1.13,2013-03-23 10:40:00,
2013-03-23 05:50:00,60.5,54.3,29.79,East,100,0.0,13.0,80,0.00,,,0.00,Wunderground v.1.13,2013-03-23 10:50:00,
2013-03-23 06:00:00,60.6,54.7,29.79,ESE,102,0.0,13.0,81,0.00,,,0.00,Wunderground v.1.13,2013-03-23 11:00:00,
2013-03-23 06:10:00,60.7,55.2,29.80,ESE,102,0.0,13.0,82,0.00,,,0.00,Wunderground v.1.13,2013-03-23 11:10:00,
2013-03-23 06:20:00,60.7,55.8,29.80,ESE,103,0.0,13.0,84,0.00,,,0.01,Wunderground v.1.13,2013-03-23 11:20:00,
2013-03-23 06:30:00,60.4,56.2,29.78,ESE,103,0.0,13.0,86,0.00,,,0.01,Wunderground v.1.13,2013-03-23 11:30:00,
2013-03-23 06:40:00,59.9,56.0,29.78,ESE,119,1.0,1.0,87,0.00,,,0.01,Wunderground v.1.13,2013-03-23 11:40:00,
2013-03-23 06:50:00,59.8,55.9,29.77,East,98,0.0,13.0,87,0.00,,,0.01,Wunderground v.1.13,2013-03-23 11:50:00,
2013-03-23 07:00:00,59.8,55.9,29.75,SE,136,1.0,13.0,87,0.00,,,0.01,Wunderground v.1.13,2013-03-23 12:00:00,
2013-03-23 07:10:00,60.0,56.4,29.76,SE,139,3.0,3.0,88,0.24,,,0.03,Wunderground v.1.13,2013-03-23 12:10:00,
2013-03-23 07:20:00,59.9,56.3,29.80,WNW,297,0.0,13.0,88,1.46,,,0.22,Wunderground v.1.13,2013-03-23 12:20:00,
2013-03-23 07:30:00,59.4,56.5,29.80,NNW,348,2.0,2.0,90,5.28,,,0.74,Wunderground v.1.13,2013-03-23 12:30:00,
2013-03-23 07:40:00,59.0,56.4,29.81,North,355,1.0,1.0,91,0.38,,,0.94,Wunderground v.1.13,2013-03-23 12:40:00,
2013-03-23 07:50:00,58.9,56.6,29.79,North,355,0.0,13.0,92,0.13,,,0.98,Wunderground v.1.13,2013-03-23 12:50:00,
2013-03-23 08:00:00,58.8,56.5,29.80,North,355,0.0,13.0,92,0.08,,,0.99,Wunderground v.1.13,2013-03-23 13:00:00,
2013-03-23 08:10:00,58.7,56.4,29.79,NE,35,0.0,13.0,92,0.07,,,1.00,Wunderground v.1.13,2013-03-23 13:10:00,
2013-03-23 08:20:00,58.9,56.6,29.79,NE,38,0.0,13.0,92,0.00,,,1.00,Wunderground v.1.13,2013-03-23 13:20:00,
2013-03-23 08:30:00,59.1,56.8,29.80,NE,38,0.0,13.0,92,0.00,,,1.00,Wunderground v.1.13,2013-03-23 13:30:00,
2013-03-23 08:40:00,59.3,57.0,29.80,NE,38,0.0,13.0,92,0.00,,,1.00,Wunderground v.1.13,2013-03-23 13:40:00,
2013-03-23 08:50:00,59.6,57.3,29.80,NE,38,0.0,13.0,92,0.00,,,1.00,Wunderground v.1.13,2013-03-23 13:50:00,
2013-03-23 09:00:00,59.8,57.5,29.80,NE,38,0.0,13.0,92,0.00,,,1.00,Wunderground v.1.13,2013-03-23 14:00:00,
2013-03-23 09:10:00,60.2,57.9,29.81,NE,38,0.0,13.0,92,0.00,,,1.00,Wunderground v.1.13,2013-03-23 14:10:00,
2013-03-23 09:20:00,60.5,58.2,29.81,NE,49,0.0,13.0,92,0.00,,,1.00,Wunderground v.1.13,2013-03-23 14:20:00,
2013-03-23 09:30:00,60.7,58.4,29.81,NE,49,0.0,13.0,92,0.00,,,1.00,Wunderground v.1.13,2013-03-23 14:30:00,
2013-03-23 09:40:00,61.0,58.7,29.81,SE,126,1.0,1.0,92,0.00,,,1.00,Wunderground v.1.13,2013-03-23 14:40:00,
2013-03-23 09:50:00,61.2,58.9,29.81,SE,126,0.0,13.0,92,0.00,,,1.00,Wunderground v.1.13,2013-03-23 14:50:00,
2013-03-23 10:00:00,61.7,59.4,29.81,SE,126,0.0,13.0,92,0.00,,,1.00,Wunderground v.1.13,2013-03-23 15:00:00,
2013-03-23 10:10:00,62.2,59.8,29.80,ENE,61,1.0,1.0,92,0.00,,,1.00,Wunderground v.1.13,2013-03-23 15:10:00,
2013-03-23 10:20:00,62.7,60.3,29.79,SE,140,0.0,13.0,92,0.00,,,1.00,Wunderground v.1.13,2013-03-23 15:20:00,
2013-03-23 10:30:00,63.2,60.8,29.80,SE,134,1.0,13.0,92,0.00,,,1.00,Wunderground v.1.13,2013-03-23 15:30:00,
2013-03-23 10:40:00,63.4,61.0,29.79,SE,125,1.0,1.0,92,0.00,,,1.00,Wunderground v.1.13,2013-03-23 15:40:00,
2013-03-23 10:50:00,63.9,61.5,29.78,SE,126,1.0,1.0,92,0.00,,,1.00,Wunderground v.1.13,2013-03-23 15:50:00,
2013-03-23 11:00:00,64.4,62.0,29.78,SE,144,1.0,13.0,92,0.00,,,1.00,Wunderground v.1.13,2013-03-23 16:00:00,
2013-03-23 11:10:00,65.2,62.8,29.76,SE,127,1.0,1.0,92,0.00,,,1.00,Wunderground v.1.13,2013-03-23 16:10:00,
2013-03-23 11:20:00,65.6,63.2,29.77,SSE,149,2.0,2.0,92,0.00,,,1.00,Wunderground v.1.13,2013-03-23 16:20:00,
2013-03-23 11:30:00,66.3,63.9,29.77,SSE,148,2.0,2.0,92,0.00,,,1.00,Wunderground v.1.13,2013-03-23 16:30:00,
2013-03-23 11:40:00,67.2,64.8,29.76,ESE,123,1.0,1.0,92,0.00,,,1.01,Wunderground v.1.13,2013-03-23 16:40:00,
2013-03-23 11:50:00,68.1,65.7,29.76,SE,134,1.0,13.0,92,0.00,,,1.01,Wunderground v.1.13,2013-03-23 16:50:00,
2013-03-23 12:00:00,68.9,66.5,29.76,SE,141,1.0,1.0,92,0.00,,,1.01,Wunderground v.1.13,2013-03-23 17:00:00,
2013-03-23 12:10:00,69.2,66.8,29.76,SE,128,1.0,1.0,92,0.00,,,1.01,Wunderground v.1.13,2013-03-23 17:10:00,
2013-03-23 12:20:00,69.8,67.4,29.75,SE,130,0.0,13.0,92,0.00,,,1.01,Wunderground v.1.13,2013-03-23 17:20:00,
2013-03-23 12:30:00,70.3,67.5,29.74,South,182,0.0,13.0,91,0.00,,,1.01,Wunderground v.1.13,2013-03-23 17:30:00,
2013-03-23 12:40:00,70.6,67.8,29.74,SSE,168,0.0,13.0,91,0.00,,,1.01,Wunderground v.1.13,2013-03-23 17:40:00,
2013-03-23 12:50:00,70.7,67.6,29.73,SSE,159,0.0,13.0,90,0.00,,,1.01,Wunderground v.1.13,2013-03-23 17:50:00,
2013-03-23 13:00:00,70.7,67.6,29.73,SSE,156,0.0,13.0,90,0.00,,,1.01,Wunderground v.1.13,2013-03-23 18:00:00,
2013-03-23 13:10:00,70.7,67.6,29.72,SSE,156,0.0,13.0,90,0.00,,,1.01,Wunderground v.1.13,2013-03-23 18:10:00,
2013-03-23 13:20:00,70.6,67.5,29.73,SSE,156,0.0,13.0,90,0.00,,,1.01,Wunderground v.1.13,2013-03-23 18:20:00,
2013-03-23 13:30:00,70.5,67.7,29.71,SSE,156,0.0,13.0,91,0.00,,,1.01,Wunderground v.1.13,2013-03-23 18:30:00,
2013-03-23 13:40:00,70.3,67.5,29.70,SSE,156,0.0,13.0,91,0.00,,,1.01,Wunderground v.1.13,2013-03-23 18:40:00,
2013-03-23 13:50:00,70.2,67.4,29.70,SSE,156,0.0,13.0,91,0.00,,,1.01,Wunderground v.1.13,2013-03-23 18:50:00,
2013-03-23 14:00:00,70.0,67.3,29.69,SE,136,0.0,13.0,91,0.00,,,1.01,Wunderground v.1.13,2013-03-23 19:00:00,
2013-03-23 14:10:00,69.6,66.9,29.69,SE,130,0.0,13.0,91,0.00,,,1.01,Wunderground v.1.13,2013-03-23 19:10:00,
2013-03-23 14:20:00,69.3,66.9,29.69,East,80,0.0,13.0,92,0.00,,,1.01,Wunderground v.1.13,2013-03-23 19:20:00,
2013-03-23 14:30:00,69.0,66.6,29.68,ENE,76,0.0,13.0,92,0.00,,,1.02,Wunderground v.1.13,2013-03-23 19:30:00,
2013-03-23 14:40:00,68.9,66.5,29.68,ENE,76,0.0,13.0,92,0.05,,,1.03,Wunderground v.1.13,2013-03-23 19:40:00,
2013-03-23 14:50:00,68.6,66.2,29.67,NE,54,1.0,1.0,92,0.05,,,1.04,Wunderground v.1.13,2013-03-23 19:50:00,
2013-03-23 15:00:00,68.1,65.7,29.68,NE,40,2.0,13.0,92,0.05,,,1.04,Wunderground v.1.13,2013-03-23 20:00:00,
2013-03-23 15:10:00,67.6,65.2,29.66,ENE,72,2.0,2.0,92,0.00,,,1.05,Wunderground v.1.13,2013-03-23 20:10:00,
2013-03-23 15:20:00,67.2,64.8,29.68,NE,42,2.0,13.0,92,0.30,,,1.07,Wunderground v.1.13,2013-03-23 20:20:00,
2013-03-23 15:30:00,67.0,64.6,29.70,NE,42,3.0,13.0,92,1.48,,,1.13,Wunderground v.1.13,2013-03-23 20:30:00,
2013-03-23 15:40:00,66.2,63.8,29.67,NE,43,3.0,13.0,92,2.52,,,1.47,Wunderground v.1.13,2013-03-23 20:40:00,
2013-03-23 15:50:00,65.3,62.9,29.69,East,88,3.0,3.0,92,0.11,,,1.50,Wunderground v.1.13,2013-03-23 20:50:00,
2013-03-23 16:00:00,65.1,62.7,29.67,SSE,154,1.0,1.0,92,1.06,,,1.59,Wunderground v.1.13,2013-03-23 21:00:00,
2013-03-23 16:10:00,65.2,63.1,29.68,SSE,150,0.0,13.0,93,0.09,,,1.62,Wunderground v.1.13,2013-03-23 21:10:00,
2013-03-23 16:20:00,65.2,63.1,29.68,ESE,122,0.0,13.0,93,0.10,,,1.64,Wunderground v.1.13,2013-03-23 21:20:00,
2013-03-23 16:30:00,64.9,62.5,29.68,NE,49,1.0,13.0,92,0.04,,,1.64,Wunderground v.1.13,2013-03-23 21:30:00,
2013-03-23 16:40:00,64.5,62.4,29.67,SE,138,1.0,1.0,93,0.00,,,1.64,Wunderground v.1.13,2013-03-23 21:40:00,
2013-03-23 16:50:00,63.9,61.8,29.68,NE,34,2.0,13.0,93,0.00,,,1.64,Wunderground v.1.13,2013-03-23 21:50:00,
2013-03-23 17:00:00,63.4,61.0,29.68,ENE,61,2.0,13.0,92,0.00,,,1.64,Wunderground v.1.13,2013-03-23 22:00:00,
2013-03-23 17:10:00,63.2,61.1,29.66,East,101,2.0,2.0,93,0.00,,,1.64,Wunderground v.1.13,2013-03-23 22:10:00,
2013-03-23 17:20:00,62.8,60.4,29.68,NE,40,2.0,2.0,92,0.39,,,1.71,Wunderground v.1.13,2013-03-23 22:20:00,
2013-03-23 17:30:00,62.6,60.5,29.71,NNE,32,2.0,13.0,93,0.09,,,1.73,Wunderground v.1.13,2013-03-23 22:30:00,
2013-03-23 17:40:00,61.5,59.2,29.69,ENE,60,5.0,5.0,92,0.06,,,1.74,Wunderground v.1.13,2013-03-23 22:40:00,
2013-03-23 17:50:00,61.1,59.1,29.70,ENE,63,2.0,2.0,93,0.09,,,1.75,Wunderground v.1.13,2013-03-23 22:50:00,
2013-03-23 18:00:00,61.0,59.0,29.69,ENE,70,0.0,13.0,93,0.04,,,1.75,Wunderground v.1.13,2013-03-23 23:00:00,
2013-03-23 18:10:00,61.1,59.1,29.68,ESE,105,0.0,13.0,93,0.00,,,1.75,Wunderground v.1.13,2013-03-23 23:10:00,
2013-03-23 18:20:00,61.2,59.2,29.67,ESE,104,2.0,2.0,93,0.00,,,1.75,Wunderground v.1.13,2013-03-23 23:20:00,
2013-03-23 18:30:00,61.3,59.3,29.67,East,92,1.0,1.0,93,0.00,,,1.75,Wunderground v.1.13,2013-03-23 23:30:00,
2013-03-23 18:40:00,61.5,59.5,29.67,ESE,109,1.0,13.0,93,0.00,,,1.75,Wunderground v.1.13,2013-03-23 23:40:00,
2013-03-23 18:50:00,61.8,59.8,29.67,ESE,114,1.0,1.0,93,0.00,,,1.75,Wunderground v.1.13,2013-03-23 23:50:00,
2013-03-23 19:00:00,62.0,60.0,29.67,East,96,1.0,13.0,93,0.00,,,1.75,Wunderground v.1.13,2013-03-24 00:00:00,
2013-03-23 19:10:00,62.2,60.2,29.67,SE,125,1.0,13.0,93,0.00,,,1.75,Wunderground v.1.13,2013-03-24 00:10:00,
2013-03-23 19:20:00,62.3,60.2,29.67,East,84,1.0,1.0,93,0.00,,,1.75,Wunderground v.1.13,2013-03-24 00:20:00,
2013-03-23 19:30:00,62.4,60.3,29.66,ESE,121,0.0,13.0,93,0.00,,,1.75,Wunderground v.1.13,2013-03-24 00:30:00,
2013-03-23 19:40:00,62.4,60.3,29.66,East,98,0.0,13.0,93,0.00,,,1.75,Wunderground v.1.13,2013-03-24 00:40:00,
2013-03-23 19:50:00,62.5,60.4,29.66,East,96,0.0,13.0,93,0.00,,,1.75,Wunderground v.1.13,2013-03-24 00:50:00,
2013-03-23 20:00:00,62.5,60.4,29.66,East,96,0.0,13.0,93,0.00,,,1.75,Wunderground v.1.13,2013-03-24 01:00:00,
2013-03-23 20:10:00,62.5,60.4,29.66,ESE,108,0.0,13.0,93,0.00,,,1.75,Wunderground v.1.13,2013-03-24 01:10:00,
2013-03-23 20:20:00,62.6,60.5,29.66,SE,130,1.0,1.0,93,0.00,,,1.75,Wunderground v.1.13,2013-03-24 01:20:00,
2013-03-23 20:30:00,62.8,60.7,29.65,ESE,109,1.0,1.0,93,0.00,,,1.75,Wunderground v.1.13,2013-03-24 01:30:00,
2013-03-23 20:40:00,63.0,60.9,29.65,ESE,119,2.0,13.0,93,0.00,,,1.75,Wunderground v.1.13,2013-03-24 01:40:00,
2013-03-23 20:50:00,63.2,61.1,29.65,ESE,116,2.0,13.0,93,0.00,,,1.75,Wunderground v.1.13,2013-03-24 01:50:00,
2013-03-23 21:00:00,63.5,61.4,29.65,ESE,115,2.0,13.0,93,0.00,,,1.75,Wunderground v.1.13,2013-03-24 02:00:00,
2013-03-23 21:10:00,63.7,61.6,29.65,SE,126,2.0,13.0,93,0.00,,,1.75,Wunderground v.1.13,2013-03-24 02:10:00,
2013-03-23 21:20:00,63.8,61.7,29.65,SSE,150,2.0,13.0,93,0.00,,,1.75,Wunderground v.1.13,2013-03-24 02:20:00,
2013-03-23 21:30:00,63.9,61.8,29.64,East,86,2.0,13.0,93,0.00,,,1.75,Wunderground v.1.13,2013-03-24 02:30:00,
2013-03-23 21:40:00,64.0,61.9,29.64,ESE,120,2.0,2.0,93,0.00,,,1.75,Wunderground v.1.13,2013-03-24 02:40:00,
2013-03-23 21:50:00,64.0,61.9,29.64,SE,128,2.0,13.0,93,0.00,,,1.75,Wunderground v.1.13,2013-03-24 02:50:00,
2013-03-23 22:00:00,64.1,62.0,29.64,SE,126,2.0,13.0,93,0.00,,,1.75,Wunderground v.1.13,2013-03-24 03:00:00,
2013-03-23 22:10:00,64.2,62.1,29.63,ESE,121,2.0,13.0,93,0.00,,,1.75,Wunderground v.1.13,2013-03-24 03:10:00,
2013-03-23 22:20:00,64.4,62.3,29.63,ESE,119,3.0,13.0,93,0.00,,,1.75,Wunderground v.1.13,2013-03-24 03:20:00,
2013-03-23 22:30:00,64.5,62.4,29.62,SE,143,2.0,2.0,93,0.00,,,1.75,Wunderground v.1.13,2013-03-24 03:30:00,
2013-03-23 22:40:00,64.6,62.5,29.63,ESE,122,1.0,13.0,93,0.00,,,1.75,Wunderground v.1.13,2013-03-24 03:40:00,
2013-03-23 22:50:00,64.7,62.6,29.62,ESE,119,1.0,13.0,93,0.00,,,1.75,Wunderground v.1.13,2013-03-24 03:50:00,
2013-03-23 23:00:00,64.9,62.8,29.61,SE,134,2.0,2.0,93,0.00,,,1.75,Wunderground v.1.13,2013-03-24 04:00:00,
2013-03-23 23:10:00,65.1,63.0,29.61,ESE,119,1.0,1.0,93,0.00,,,1.75,Wunderground v.1.13,2013-03-24 04:10:00,
2013-03-23 23:20:00,65.2,63.1,29.61,SE,132,2.0,2.0,93,0.00,,,1.75,Wunderground v.1.13,2013-03-24 04:20:00,
2013-03-23 23:30:00,65.4,63.3,29.60,ESE,120,2.0,2.0,93,0.00,,,1.75,Wunderground v.1.13,2013-03-24 04:30:00,
2013-03-23 23:40:00,65.5,63.4,29.60,SE,135,2.0,2.0,93,0.00,,,1.75,Wunderground v.1.13,2013-03-24 04:40:00,
2013-03-23 23:50:00,65.8,63.7,29.59,ESE,121,1.0,1.0,93,0.00,,,1.75,Wunderground v.1.13,2013-03-24 04:50:00,